Volver al catálogo

FENGYUN 1C DEB

ActivoSSO
NORAD 36198·DEBRIS·🇨🇳 China

Lanzado May 10, 1999 desde Taiyuan Satellite Launch Center

Loading…

Próximos Pases (próximas 24 horas)

TLE

EnvejeciendoSource: Space-Track

Época: Sep 8, 2026, 06:53 UTC

1 36198U 99025DTX 26251.28717484  .00001804  00000-0  10168-2 0  9990
2 36198  98.6047 273.5624 0097869  71.4400 289.7372 14.09106839673822

Sigue FENGYUN 1C DEB en tiempo real con AllMySat

Download on the App Store